Zurück zum Katalog

COSMOS 2251 DEB

AktivLEO
NORAD 34409·DEBRIS·🇷🇺 Russia

Gestartet Jun 16, 1993 von Plesetsk Cosmodrome

Loading…

Nächste Überflüge (nächste 24 Stunden)

TLE

AktuellSource: Space-Track

Epoche: Sep 14, 2026, 03:22 UTC

1 34409U 93036RA  26257.14032453  .00000448  00000-0  98736-4 0  9998
2 34409  74.0631 143.5638 0079397 148.0813   3.7058 14.58476816932077

Verfolge COSMOS 2251 DEB in Echtzeit mit AllMySat

Download on the App Store